Location: Altenst�hlen
(53.5567°N, 8.9425°E)
Time: 18:59:41
(UTC+00:00)

STARLINK-66 - Pass Details

Date: 23 October 2019
Orbit: 548 x 552 km, 53.0° (Epoch: 21 November)

Event Time Altitude Azimuth Distance (km) Brightness Sun altitude
Rises 16:54:35 0° 267° (W) 2,717 9.6 -7.1°
Reaches altitude 10° 16:56:49 10° 267° (W) 1,824 8.0 -7.5°
Maximum altitude 17:00:58 85° 181° (S) 558 3.6 -8.1°
Enters shadow 17:04:56 11° 92° (E) 1,754 5.5 -8.7°
